Wind_Speed
75 75 75 75 76 79 82 83 82 83 84 86 87 86 85 85 84 82 82 82 81 82 84 84 84 83 77 77 67 69 61 62 55 63 61 70 62 64 67 67 44 45 46
83 83 83 84 85 85 88 90 93 95 95 94 93 94 95 93 92 91 90 90 89 89 90 89 87 86 82 78 70 72 70 72 72 79 76 72 68 70 79 68 59 56 21
87 90 93 94 95 96 97 99 101 103 106 106 106 105 102 102 102 101 99 99 97 96 93 92 90 87 82 78 76 77 80 75 84 76 79 73 73 83 79 55 40 50 44
99 100 102 104 106 107 108 109 110 110 111 113 111 109 106 104 104 104 103 102 102 99 97 95 90 83 79 76 76 84 80 84 84 82 87 99 94 90 80 74 69 47 28
99 99 101 101 103 104 104 105 106 106 107 105 104 105 103 101 99 100 98 96 94 91 85 85 81 79 71 75 76 86 89 94 89 100 90 99 106 103 100 96 81 61 35
93 95 96 95 92 93 96 99 99 97 93 95 96 93 91 92 91 90 89 89 87 82 80 78 75 73 67 74 78 89 96 92 99 104 111 113 114 109 100 98 92 79 73
82 82 82 82 82 83 86 88 89 89 87 81 82 83 86 86 87 83 80 78 78 75 73 73 72 72 72 75 79 90 98 101 105 105 112 124 122 115 121 112 97 73 69
74 72 71 73 72 72 74 77 77 78 74 66 65 70 75 79 81 78 73 69 68 67 69 68 68 69 73 72 78 86 100 106 111 112 116 122 124 123 116 119 116 105 107
56 56 59 61 63 67 71 71 66 67 59 57 56 60 66 71 77 74 68 64 63 63 66 66 67 68 72 72 75 83 98 110 112 115 119 119 122 128 131 126 121 115 112
40 46 50 54 55 54 56 58 54 49 47 44 47 49 51 60 66 67 64 59 58 61 65 68 66 67 71 73 70 68 85 98 110 113 122 122 122 124 128 123 120 117 112
32 37 42 46 47 48 48 47 47 39 33 34 36 37 41 45 49 54 59 58 60 65 68 69 72 69 72 69 68 70 71 82 91 103 104 117 128 125 123 124 119 109 108
26 33 40 42 43 42 42 40 39 40 35 28 25 28 31 34 36 40 47 49 54 57 62 67 70 73 75 71 67 59 64 66 66 74 96 100 113 123 128 113 105 95 95
30 29 35 38 38 40 41 38 36 32 34 31 28 24 26 28 29 31 37 43 49 52 59 65 69 69 60 48 41 44 45 51 53 62 76 85 94 108 108 99 94 99 102
35 39 39 40 38 38 40 39 36 34 31 31 31 28 25 24 24 25 30 35 43 48 55 60 63 61 57 53 47 47 45 47 47 51 50 56 61 58 57 61 67 57 41
40 42 45 39 35 35 33 35 37 34 32 31 29 27 26 25 24 23 26 30 33 42 48 52 55 49 55 49 45 46 43 45 44 39 36 38 36 35 37 36 38 35 38
47 49 47 38 35 34 34 30 31 32 31 30 30 30 27 24 26 23 21 26 30 37 39 39 39 41 46 45 43 45 42 47 44 41 41 37 30 30 30 27 31 38 46
49 48 41 37 35 33 31 29 22 24 26 29 31 31 29 24 25 25 23 20 24 29 35 39 40 39 43 43 44 46 49 53 48 44 44 36 27 27 26 27 35 44 42
51 43 36 35 33 30 28 25 18 17 21 23 27 29 29 26 25 26 26 23 20 21 28 34 37 38 40 42 45 47 51 52 48 44 45 36 27 27 26 33 39 43 36
53 47 38 33 29 27 27 23 16 14 17 18 22 24 26 30 25 25 25 26 25 23 23 23 29 35 39 43 44 47 49 45 43 39 41 32 28 29 32 36 41 45 40
53 50 43 33 29 24 23 22 16 12 11 17 18 18 19 25 30 29 31 32 31 29 24 22 23 28 36 39 37 35 37 39 38 35 34 29 31 33 38 40 41 45 42
56 55 48 37 34 29 24 18 13 9 6 8 12 15 19 26 32 33 30 29 29 26 24 20 21 25 32 35 35 33 36 36 30 32 33 36 37 42 43 45 46 49 51
55 58 55 44 38 34 27 17 8 8 4 2 8 14 19 22 29 31 31 26 23 24 23 19 21 24 26 32 35 34 38 41 37 39 43 46 46 47 50 52 54 54 52
52 58 59 51 44 38 33 25 18 14 11 4 7 13 15 17 20 26 24 24 20 19 19 23 25 22 24 30 34 36 38 42 46 49 52 53 56 58 56 55 54 53 52
48 53 58 59 52 44 40 32 23 19 13 9 5 11 14 14 16 18 22 22 22 20 23 24 21 20 23 26 29 35 39 47 58 59 64 64 62 61 59 57 54 54 50
45 49 55 57 56 50 42 37 31 23 20 13 11 10 11 14 17 20 22 23 23 24 22 20 20 22 26 32 36 44 54 60 68 71 70 67 65 61 57 55 49 44 44
41 45 50 52 54 53 50 39 34 30 24 20 16 12 12 14 16 18 19 23 22 20 21 23 27 33 40 46 48 58 62 74 79 77 71 67 64 59 57 54 50 46 42
Wind_Direction
269 270 270 271 272 274 275 272 269 270 271 271 271 270 270 270 270 269 269 268 267 267 266 266 266 266 263 253 248 252 242 246 246 243 254 267 264 264 266 267 266 281 247
268 271 273 274 273 273 273 275 275 275 274 272 271 272 273 272 272 272 271 270 269 267 267 266 266 265 263 256 243 241 240 236 235 238 251 256 255 256 259 264 262 274 274
275 274 274 275 275 275 275 274 273 273 274 274 273 272 271 271 271 270 269 269 268 268 268 269 268 267 261 254 246 233 236 235 239 238 245 252 253 254 261 250 247 269 270
275 274 274 274 275 274 273 273 272 271 270 271 270 270 270 269 269 269 268 268 268 268 268 268 266 262 257 249 242 230 234 234 236 234 240 246 249 254 257 256 261 261 240
275 276 276 277 277 278 278 277 275 273 272 270 268 267 266 265 265 264 265 266 265 265 264 264 262 260 252 244 236 229 230 233 237 236 239 242 246 252 257 260 260 254 245
276 278 278 279 279 278 278 278 279 278 274 272 271 268 266 264 262 261 261 262 262 262 261 259 255 255 250 240 234 229 229 230 234 236 239 244 244 249 255 257 256 252 255
279 282 281 283 283 282 282 282 281 282 280 275 268 264 261 258 258 258 258 258 258 257 256 255 254 252 245 240 233 232 228 230 232 235 238 241 244 246 244 250 251 249 244
281 283 284 283 283 282 284 283 284 285 282 275 267 262 256 254 255 255 254 254 254 253 252 250 248 246 244 239 234 232 227 228 232 234 238 241 243 247 250 252 252 251 255
284 282 281 283 283 281 281 284 286 284 282 273 264 258 254 250 249 252 251 251 250 249 248 246 244 244 244 241 238 233 230 229 232 235 238 241 243 247 250 253 256 260 261
289 290 289 289 289 289 287 288 289 284 277 271 262 257 255 252 251 252 252 248 244 243 244 246 245 242 242 240 240 235 235 235 235 237 239 240 243 245 248 252 255 259 262
306 301 301 299 297 293 293 292 291 293 285 273 265 257 251 249 249 249 249 246 242 240 242 241 244 245 248 245 242 237 242 242 242 242 246 245 244 247 251 253 257 262 264
326 330 315 303 303 302 296 294 292 292 293 284 276 263 253 249 245 240 242 238 235 233 236 237 241 242 246 249 245 244 242 241 247 248 247 250 251 251 255 259 263 266 268
330 328 328 314 306 303 300 295 291 291 287 285 277 268 261 253 250 240 235 236 236 232 231 233 236 241 247 239 226 227 248 246 249 252 252 252 255 254 257 259 258 272 274
345 340 334 321 308 306 297 294 289 287 283 281 275 271 254 252 254 250 238 233 234 232 231 233 236 241 241 244 237 231 240 255 260 254 254 260 265 266 267 263 260 261 247
346 344 336 321 310 306 301 291 287 281 277 275 275 270 257 246 246 246 240 236 231 234 234 235 240 248 243 240 229 233 238 251 260 260 254 256 261 262 254 248 241 224 202
349 344 336 322 317 313 310 302 283 278 272 264 264 262 256 244 236 237 237 229 222 225 225 226 238 239 244 242 236 233 242 250 256 258 266 256 257 250 240 223 201 189 188
350 347 336 326 319 314 311 307 281 274 270 258 250 248 248 238 234 228 233 226 219 225 220 214 215 219 218 219 228 234 238 250 251 253 251 259 254 244 229 196 182 179 184
355 348 341 331 324 320 317 310 289 266 264 257 249 241 238 237 232 228 223 227 222 212 217 221 218 221 227 227 227 233 241 242 247 247 251 249 244 225 209 181 178 178 174
1 358 351 343 334 329 327 320 294 278 258 255 248 239 227 224 227 229 225 216 221 221 221 221 227 231 232 231 231 229 232 234 240 246 249 238 217 204 186 172 176 182 174
5 5 0 354 349 341 337 327 308 292 267 241 242 232 216 208 210 216 219 220 216 220 221 220 228 232 230 230 233 235 229 225 234 232 222 206 193 179 169 166 168 176 181
14 13 8 6 5 359 355 342 319 306 273 230 228 217 201 197 201 210 218 224 219 220 225 222 228 229 223 223 221 222 221 205 202 195 191 183 172 160 155 158 164 168 170
17 19 15 14 14 14 9 13 15 32 48 150 198 198 190 191 199 201 209 215 218 218 220 225 226 225 212 209 213 205 203 193 186 182 173 165 158 158 159 159 161 163 167
19 25 23 20 21 23 21 18 28 41 46 80 167 178 174 179 195 201 204 203 205 192 207 217 222 218 205 202 198 193 193 180 170 165 161 157 156 155 156 157 160 164 170
17 28 32 28 26 26 30 28 32 43 58 78 125 164 154 162 168 185 193 191 189 194 199 208 211 205 195 189 181 172 175 169 159 158 155 153 154 156 156 161 165 169 174
20 26 30 35 32 30 33 35 36 44 64 78 85 116 141 141 147 160 173 179 183 192 197 194 187 179 172 161 161 160 160 159 153 153 151 153 157 155 161 165 165 173 182
16 25 27 33 40 36 35 39 43 49 56 70 82 91 125 140 154 166 171 173 175 180 174 169 165 164 161 157 160 157 155 153 152 149 151 153 155 159 165 168 173 177 181
Height
10624 10624 10624 10624 10624 10621 10618 10616 10617 10617 10614 10612 10612 10615 10616 10617 10619 10621 10622 10623 10626 10625 10628 10631 10631 10627 10630 10632 10639 10646 10648 10653 10650 10649 10655 10656 10660 10662 10667 10670 10679 10676 10679
10599 10602 10604 10602 10601 10600 10596 10591 10588 10584 10584 10586 10587 10587 10586 10589 10591 10592 10594 10594 10596 10598 10598 10602 10603 10600 10605 10610 10620 10626 10633 10637 10638 10636 10635 10638 10642 10646 10647 10653 10667 10666 10668
10583 10578 10574 10573 10573 10571 10570 10566 10562 10558 10552 10551 10552 10554 10558 10559 10560 10561 10562 10564 10565 10567 10570 10573 10573 10575 10580 10587 10599 10604 10612 10619 10618 10618 10617 10619 10625 10630 10630 10639 10650 10652 10657
10554 10552 10549 10543 10539 10537 10535 10533 10531 10527 10523 10517 10517 10520 10522 10525 10527 10526 10529 10532 10533 10537 10540 10543 10544 10547 10553 10563 10577 10582 10589 10599 10600 10599 10600 10605 10606 10611 10618 10626 10637 10640 10646
10523 10520 10517 10513 10507 10500 10495 10491 10488 10484 10480 10480 10483 10484 10487 10490 10492 10493 10496 10500 10503 10506 10511 10514 10520 10521 10530 10539 10555 10564 10568 10573 10580 10583 10582 10586 10590 10596 10602 10608 10620 10628 10634
10499 10494 10488 10483 10480 10472 10463 10455 10450 10445 10444 10441 10440 10446 10449 10453 10455 10461 10467 10471 10475 10481 10485 10489 10495 10500 10512 10518 10529 10537 10541 10546 10552 10557 10562 10560 10573 10580 10582 10590 10596 10608 10619
10473 10468 10462 10458 10453 10444 10435 10426 10419 10411 10405 10404 10404 10409 10413 10417 10420 10430 10439 10446 10452 10456 10461 10465 10471 10480 10487 10494 10506 10512 10520 10521 10523 10534 10540 10544 10549 10557 10566 10569 10584 10590 10599
10454 10448 10441 10433 10426 10417 10408 10399 10391 10383 10376 10372 10374 10377 10381 10387 10391 10402 10414 10424 10429 10434 10436 10444 10450 10457 10462 10476 10481 10488 10495 10500 10503 10514 10516 10523 10524 10530 10539 10550 10561 10576 10582
10434 10429 10420 10413 10406 10397 10388 10378 10370 10360 10353 10349 10349 10351 10356 10360 10366 10377 10391 10404 10410 10413 10414 10423 10430 10437 10440 10452 10464 10470 10478 10482 10487 10494 10499 10501 10505 10511 10521 10529 10538 10548 10564
10418 10411 10403 10395 10386 10377 10368 10359 10351 10342 10336 10333 10332 10333 10337 10340 10348 10357 10369 10383 10392 10394 10397 10400 10411 10417 10421 10430 10442 10451 10458 10465 10467 10474 10478 10484 10488 10489 10498 10512 10522 10532 10545
10406 10396 10386 10376 10367 10359 10350 10342 10335 10328 10322 10320 10319 10320 10322 10326 10333 10341 10347 10357 10366 10373 10378 10385 10389 10397 10401 10411 10423 10433 10441 10443 10450 10457 10461 10469 10472 10476 10486 10495 10507 10519 10532
10392 10383 10373 10363 10354 10345 10337 10330 10323 10317 10313 10311 10311 10312 10312 10314 10319 10326 10328 10335 10343 10352 10361 10367 10371 10376 10384 10397 10408 10419 10427 10431 10439 10441 10448 10455 10462 10468 10470 10481 10492 10503 10511
10380 10369 10361 10352 10343 10334 10326 10320 10313 10308 10306 10304 10303 10305 10306 10306 10308 10313 10316 10322 10327 10337 10343 10349 10354 10361 10373 10389 10395 10405 10411 10414 10419 10425 10432 10438 10444 10449 10455 10462 10473 10485 10494
10368 10359 10349 10340 10332 10323 10315 10308 10303 10300 10297 10296 10295 10295 10299 10298 10299 10303 10307 10311 10316 10323 10329 10336 10343 10353 10365 10374 10383 10391 10398 10399 10404 10411 10419 10424 10428 10431 10433 10440 10456 10471 10479
10360 10348 10338 10329 10321 10312 10304 10296 10291 10288 10287 10287 10287 10287 10289 10291 10294 10296 10299 10302 10306 10311 10319 10326 10334 10344 10354 10362 10372 10378 10386 10391 10394 10402 10408 10413 10418 10423 10427 10435 10446 10459 10471
10351 10339 10328 10318 10309 10300 10292 10286 10280 10276 10276 10276 10278 10278 10280 10284 10287 10290 10293 10297 10301 10305 10312 10320 10328 10335 10344 10353 10364 10371 10375 10380 10386 10391 10398 10407 10413 10420 10425 10434 10443 10454 10468
10346 10333 10320 10308 10299 10290 10282 10275 10271 10267 10264 10264 10267 10270 10272 10278 10280 10284 10288 10292 10296 10301 10308 10315 10322 10327 10335 10342 10350 10358 10365 10369 10377 10384 10392 10401 10408 10415 10422 10431 10442 10455 10468
10340 10327 10314 10301 10290 10281 10273 10266 10262 10260 10256 10255 10256 10260 10263 10269 10274 10278 10283 10287 10291 10296 10302 10308 10311 10318 10324 10332 10339 10346 10352 10361 10365 10375 10386 10397 10403 10412 10421 10431 10443 10455 10468
10336 10321 10308 10295 10284 10274 10265 10258 10254 10252 10250 10248 10248 10251 10256 10261 10268 10274 10279 10284 10287 10290 10294 10300 10305 10311 10318 10324 10330 10338 10345 10352 10360 10368 10381 10389 10401 10412 10421 10431 10443 10457 10471
10334 10317 10304 10291 10280 10270 10260 10252 10247 10245 10244 10244 10243 10246 10250 10256 10262 10268 10272 10277 10282 10287 10292 10299 10303 10306 10311 10317 10326 10333 10340 10347 10356 10366 10376 10387 10402 10413 10422 10433 10446 10460 10472
10334 10318 10303 10289 10276 10266 10257 10249 10244 10242 10241 10241 10240 10241 10244 10248 10254 10260 10265 10270 10278 10285 10289 10295 10300 10302 10306 10311 10318 10326 10335 10344 10357 10364 10376 10391 10403 10415 10426 10436 10446 10458 10471
10337 10321 10304 10289 10277 10266 10257 10250 10246 10242 10239 10238 10239 10240 10242 10245 10251 10257 10262 10267 10275 10284 10288 10292 10294 10297 10301 10307 10315 10323 10333 10343 10352 10365 10380 10394 10407 10419 10428 10437 10449 10463 10475
10343 10327 10311 10295 10281 10270 10261 10253 10247 10243 10240 10240 10241 10242 10243 10246 10250 10255 10261 10268 10275 10282 10286 10288 10290 10295 10300 10307 10313 10321 10331 10340 10353 10370 10385 10398 10410 10422 10432 10444 10456 10468 10478
10349 10335 10319 10303 10288 10276 10266 10259 10252 10247 10244 10244 10244 10245 10246 10249 10253 10259 10264 10269 10274 10279 10283 10286 10288 10293 10298 10305 10314 10322 10333 10345 10358 10373 10390 10401 10414 10427 10439 10452 10461 10471 10481
10355 10343 10329 10314 10301 10288 10277 10268 10260 10255 10251 10250 10249 10249 10251 10254 10257 10261 10265 10271 10275 10278 10282 10285 10289 10293 10300 10307 10317 10327 10337 10351 10365 10381 10395 10408 10421 10434 10446 10457 10467 10476 10483
10359 10350 10340 10327 10314 10302 10290 10281 10272 10266 10261 10258 10256 10256 10257 10259 10261 10264 10268 10272 10276 10280 10284 10288 10291 10296 10303 10310 10322 10336 10348 10363 10376 10389 10401 10416 10428 10439 10450 10459 10468 10478 10485